Weather in Sendai

Japan     38°12′29″N   140°53′59″E
temp.,
°C
wind,
m/s
gust,
m/s
humid.,
%
clouds,
%
prec.,
mm/h
press.,
hPa
HPBL,
m
23 april, fri
fri2300:00+9ene43597 0.0 1024566
03:00+9nnw11553 0.0 1024428
06:00+7n33520 0.0 1024258
09:00+11ne22460 0.0 1024653
12:00+12ese43410 0.0 1023758
15:00+13se43420 0.0 1022501
18:00+12ese43540 0.0 1023575
21:00+11ese22590 0.0 1024507
24 april, sat
sat2400:00+10s12630 0.0 1024358
03:00+10ssw23660 0.0 1023287
06:00+10w1063100 0.0 1022208
09:00+13s2251100 0.0 1022462
12:00+14sse4352100 0.0 1020453
15:00+14sse4558100 0.0 1018394
18:00+14s5769100 0.0 1017290
21:00+14ssw2275100 0.0 101656
25 april, sun
sun2500:00+13nw2370100 0.0 101567
03:00+12nnw1262100 0.1 101460
06:00+13wnw2261100 0.0 101485
09:00+15wnw3647100 0.0 1014705
12:00+16w5744100 0.0 10131391
15:00+16wnw8104685 0.0 10121397
18:00+12nw711440 0.0 10151269
21:00+10wnw712460 0.0 10171284
26 april, mon
mon2600:00+9wnw8155180 0.0 10172114
03:00+8nw714390 0.0 10181633
06:00+8nw612445 0.0 10191783
09:00+11nnw7103796 0.0 10202251
12:00+13nnw7103033 0.0 10192462
15:00+14nnw79315 0.0 10192320
18:00+11nw78390 0.0 10211204
21:00+9nw35420 0.0 1023531
27 april, tue
tue2700:00+8nw23465 0.0 1024315
03:00+7wnw12450 0.0 1025223
06:00+7w11410 0.0 1025246
09:00+11sse34370 0.0 1025634
12:00+13sse44425 0.0 1023704
15:00+15sse445564 0.0 1022707
18:00+15sse3670100 0.0 1022368
21:00+14n2375100 0.0 102294